OneWeb SL0328

operational
NORAD ID: 49197 Int'l Des: 2021-083 Owner: ONEWEBN Country: UK Constellation: oneweb
LEOCIRCULARPOLARONEWEB_TYPE

关于 OneWeb SL0328

正在加载描述...

实时位置

正在加载3D地球...

即将过境

高度历史

Altitude vs Time

uPlot chart will show altitude changes over time

两行轨道根数

1 49197U 21083M 26037.27213038 -.00000168 00000-0 -49501-3 0 9997
2 49197 87.9034 346.2231 0001894 83.6832 276.4512 13.13472152213716
Epoch: Feb 6, 2026 • Age: 8 hours

当前状态

高度 1211.8 km
速度 7.25 km/s
星下点 12.23°N, 168.53°E
发射日期 Sep 14, 2021
运行时间 4.3 years
类型 internet

技术详情

分类 Payload
质量 148.00 kg
干质量 140.00 kg
总质量 148.00 kg
长度 1.30 m
直径 1.00 m
跨度 5.00 m
形状 Trapezoid+2 pan
制造商 ONEWUS
平台类型 ARROW
阶段状态 In Orbit
所有者/国家 ONEWEBN/UK

大型星座

Loading constellations...